Volver al catálogo

STARLINK-5027

ActivoComunicacionesVLEO
NORAD 55370·PAYLOAD·🇺🇸 United States

Lanzado Jan 26, 2023 desde Cape Canaveral Space Force Station

Loading…

Próximos Pases (próximas 24 horas)

TLE

ActualizadoSource: CelesTrak SupGP

Época: Sep 14, 2026, 22:11 UTC

1 55370C 23013AR  26257.92479167 -.00031950  00000+0 -11573-2 0  2571
2 55370  43.0026 332.7084 0001489 267.6129 170.3084 15.27591979    18

Sigue STARLINK-5027 en tiempo real con AllMySat

Download on the App Store